Probability
0 0 0 0 0 0 0 0 0 0 0 0 0 0 0 0 0 0 0 0 0 0 0 0 0 0 0 0 0 0 0 0 0 0 0 0 0 0 0 0 0 0 0
0 0 0 0 0 0 0 0 0 0 0 0 0 0 0 0 0 0 0 0 0 0 0 0 0 0 0 0 0 0 0 0 0 0 0 0 0 0 0 0 0 0 0
0 0 0 0 0 0 0 0 0 0 0 0 0 0 0 0 0 0 0 0 0 0 0 0 0 0 0 0 0 0 0 0 0 0 0 0 0 0 0 0 0 0 0
0 0 0 0 0 0 0 0 0 0 0 0 0 0 0 0 0 0 0 0 0 0 0 0 0 0 0 0 0 0 0 0 0 0 0 0 0 0 0 0 0 0 0
0 0 0 0 0 0 0 0 0 0 0 0 0 0 0 0 0 0 0 0 0 0 0 0 0 0 0 0 0 0 0 0 0 0 0 0 0 0 0 0 0 0 0
0 0 0 0 0 0 0 0 0 0 0 0 0 0 0 0 0 0 0 0 0 0 0 0 0 0 0 0 0 0 0 0 0 0 0 0 0 0 0 0 0 0 0
0 0 0 0 0 0 0 0 0 0 0 0 0 0 0 0 0 0 0 0 0 0 0 0 0 0 0 0 0 0 0 0 0 0 0 0 0 0 0 0 0 0 0
0 0 0 0 0 0 0 0 0 0 0 0 0 0 0 0 0 0 0 0 0 0 0 0 0 0 0 0 0 0 0 0 0 0 0 0 0 0 0 0 0 0 0
0 0 0 0 0 0 0 0 0 0 0 0 0 0 0 0 0 0 0 0 0 0 0 0 0 0 0 0 0 0 0 0 0 0 0 0 0 0 0 0 0 0 0
0 0 0 0 0 0 0 0 0 0 0 0 0 0 0 0 0 0 0 0 0 0 0 0 0 0 0 0 0 0 0 0 0 0 0 0 0 0 0 0 0 0 0
0 0 0 0 0 0 0 0 0 0 0 0 0 0 0 0 0 0 0 0 0 0 0 0 0 0 0 0 0 0 0 0 0 0 0 0 0 0 0 0 0 0 0
0 0 0 0 0 0 0 0 0 0 0 0 0 0 0 0 0 0 0 0 0 0 0 0 0 0 0 0 0 0 0 0 0 0 0 0 0 0 0 0 0 0 0
0 0 0 0 0 0 0 0 0 0 0 0 0 0 0 0 0 0 0 0 0 0 0 0 0 0 0 0 0 0 0 0 0 0 0 0 0 0 0 0 0 0 0
0 0 0 0 0 0 0 0 0 0 0 0 0 0 0 0 0 0 0 0 0 0 0 0 0 0 0 0 0 0 0 0 0 0 0 0 0 0 0 0 0 0 0
0 0 0 0 0 0 0 0 0 0 0 0 0 0 0 0 0 0 0 0 0 0 0 0 0 0 0 0 0 0 0 0 0 0 0 0 0 0 0 0 0 0 0
0 0 0 0 0 0 0 0 0 0 0 0 0 0 0 0 0 0 0 0 0 0 0 0 0 0 0 0 0 0 0 0 0 0 0 0 0 0 0 0 0 0 0
0 0 0 0 0 0 0 0 0 0 0 0 0 0 0 0 0 0 0 0 0 0 0 0 0 0 0 0 0 0 0 0 0 0 0 0 0 0 0 0 0 0 0
0 0 0 0 0 0 0 0 0 0 0 0 0 0 0 0 0 0 0 0 0 0 0 0 0 0 0 0 0 0 0 0 0 0 0 0 0 0 0 0 0 0 0
0 0 0 0 0 0 0 0 0 0 0 0 0 0 0 0 0 0 0 0 0 0 0 0 0 0 0 0 0 0 0 0 0 0 0 0 0 0 0 0 0 0 0
0 0 0 0 0 0 0 0 0 0 0 0 0 0 0 0 0 0 0 0 0 0 0 0 0 0 0 0 0 0 0 0 0 0 0 0 0 0 0 0 0 0 0
0 0 0 0 0 0 0 0 0 0 0 0 0 0 0 0 0 0 0 0 0 0 0 0 0 0 0 0 0 0 0 0 0 0 0 0 0 0 0 0 0 0 0
0 0 0 0 0 0 0 0 0 0 0 0 0 0 0 0 0 0 0 0 0 0 0 0 0 0 0 0 0 0 0 0 0 0 0 0 0 0 0 0 0 0 0
0 0 0 0 0 0 0 0 0 0 0 0 0 0 0 0 0 0 0 0 0 0 0 0 0 0 0 0 0 0 0 0 0 0 0 0 0 0 0 0 0 0 0
0 0 0 0 0 0 0 0 0 0 0 0 0 0 0 0 0 0 0 0 0 0 0 0 0 0 0 0 0 0 0 0 0 0 0 0 0 0 0 0 0 0 0
0 0 0 0 0 0 0 0 0 0 0 0 0 0 0 0 0 0 0 0 0 0 0 0 0 0 0 0 0 0 0 0 0 0 0 0 0 0 0 0 0 0 0
0 0 0 0 0 0 0 0 0 0 0 0 0 0 0 0 0 0 0 0 0 0 0 0 0 0 0 0 0 0 0 0 0 0 0 0 0 0 0 0 0 0 0
Wind_Speed
5 4 4 2 2 3 4 4 5 6 5 4 5 5 5 5 4 4 7 8 8 9 9 7 7 8 7 8 9 9 11 9 9 10 12 10 10 9 4 6 6 6 8
5 5 4 2 2 4 4 5 6 6 6 4 4 4 6 4 4 5 7 8 9 10 10 9 8 9 8 8 8 10 9 9 7 8 10 8 6 3 8 7 6 5 7
8 5 4 3 3 4 5 6 6 7 6 6 5 6 4 4 4 5 4 6 10 10 10 10 9 9 8 8 9 9 9 10 8 5 6 7 7 11 5 5 5 5 7
6 4 3 3 2 3 4 5 6 6 6 6 6 7 8 8 8 6 7 9 9 10 10 10 10 9 8 9 10 8 8 10 9 7 6 7 9 9 8 4 4 7 8
6 5 3 1 2 3 4 5 5 6 6 7 7 7 6 6 7 8 8 8 7 9 11 11 10 10 10 10 10 10 9 7 8 8 8 9 8 10 10 13 8 7 6
6 4 2 2 3 3 4 4 6 6 7 7 7 7 9 9 11 12 9 8 7 7 9 12 10 10 10 11 11 10 10 9 9 9 8 8 8 7 8 11 13 12 8
6 3 2 2 3 4 5 6 7 7 8 8 8 8 8 8 10 11 11 12 10 10 11 12 10 11 11 12 12 10 10 9 10 9 8 8 9 9 10 11 12 13 10
5 4 3 1 2 4 5 6 7 8 8 8 8 8 7 6 7 9 10 11 10 11 13 13 14 15 15 14 12 10 11 9 9 11 10 9 9 9 9 10 11 12 9
6 5 3 1 2 4 5 6 7 8 8 8 9 7 7 8 9 10 9 9 10 12 14 16 17 17 16 15 12 10 10 10 10 10 10 9 9 9 9 9 9 10 12
6 5 3 0 2 3 4 6 6 7 7 8 7 9 9 9 10 10 11 12 12 13 16 17 18 18 16 13 11 10 9 10 10 9 10 9 8 7 8 8 8 8 10
7 5 3 0 2 4 4 5 6 7 7 7 7 8 8 9 10 9 11 11 11 14 15 17 18 18 16 12 9 9 9 9 9 8 8 8 8 7 6 7 7 7 8
7 5 3 1 3 4 5 6 6 6 7 7 7 8 9 9 9 10 11 11 12 13 15 16 17 17 16 12 10 10 10 9 8 8 8 7 7 8 7 6 7 7 8
7 4 2 1 3 4 5 6 6 6 6 6 7 8 8 9 10 10 11 11 12 13 14 15 16 16 14 11 10 10 11 11 11 11 10 9 8 8 8 8 6 7 8
7 5 3 1 3 4 5 5 6 6 6 6 7 7 8 9 10 10 11 11 11 12 13 14 15 15 13 8 8 10 11 12 12 12 12 12 11 10 10 9 8 8 9
7 6 4 3 3 4 5 5 5 6 6 6 7 7 8 9 9 10 10 10 11 12 12 13 15 15 13 7 7 8 11 11 12 12 12 13 18 20 16 12 10 10 8
8 7 5 4 4 4 4 5 5 5 5 6 6 8 8 9 9 10 10 10 10 11 11 12 13 15 13 19 22 14 9 9 10 11 12 13 14 19 20 23 21 18 13
8 8 6 5 4 4 4 4 5 5 5 6 6 7 8 9 9 11 10 10 9 9 10 11 12 13 17 23 21 22 10 9 9 10 11 12 15 18 7 15 19 17 21
9 8 6 5 4 3 3 3 4 4 5 6 6 7 7 8 9 9 10 9 7 8 7 9 11 12 17 25 19 20 9 7 9 10 11 12 12 16 13 11 12 10 10
8 7 6 5 4 3 2 3 3 4 5 6 6 7 7 7 8 8 9 7 7 7 7 8 9 11 15 24 20 15 5 6 8 10 12 15 11 23 24 14 14 13 10
7 7 6 5 4 3 2 2 3 4 5 6 6 6 6 7 7 7 7 6 7 7 9 10 9 10 11 21 23 15 5 6 8 8 11 19 21 24 25 14 13 14 12
7 7 6 6 5 3 2 2 3 4 5 6 6 6 6 7 7 6 6 7 8 9 9 9 10 9 11 17 21 19 4 6 8 9 9 11 25 25 25 20 14 18 16
8 7 7 6 5 4 3 3 4 5 5 5 6 6 6 6 7 7 7 7 8 8 8 7 9 7 9 13 16 19 16 12 7 8 8 12 24 24 24 19 22 24 18
9 7 7 6 5 4 4 4 4 4 5 5 6 6 7 6 6 6 7 7 7 7 8 7 8 8 8 10 17 15 15 16 7 6 16 20 23 20 15 22 25 19 12
9 8 8 7 6 5 5 5 4 4 4 5 6 6 6 7 7 6 6 6 7 8 7 6 7 8 8 8 6 4 5 9 7 5 11 17 19 16 17 17 14 11 12
9 9 9 8 7 5 5 5 4 3 4 5 5 5 6 6 6 7 5 7 6 10 10 7 7 8 9 12 18 11 6 4 5 5 5 6 7 9 9 10 10 10 11
10 9 9 8 7 6 5 5 4 3 4 4 5 4 5 5 6 6 8 11 12 17 17 17 16 12 16 20 19 18 16 16 15 7 4 5 6 7 8 9 9 9 10
Wind_Direction
209 186 184 190 297 297 312 321 338 338 341 338 334 322 318 310 306 310 319 316 315 318 314 314 315 314 313 314 314 318 317 317 319 315 314 296 274 272 291 301 298 308 338
197 205 208 214 272 295 317 332 342 334 335 326 313 299 305 300 303 309 307 308 315 318 321 318 314 310 309 309 311 316 313 317 328 317 317 314 309 341 323 295 294 319 336
203 213 220 234 264 304 327 336 329 329 327 324 317 319 302 296 313 317 304 313 317 316 312 310 310 308 304 304 305 303 311 314 311 300 302 307 315 324 276 278 304 330 321
190 197 212 239 283 322 334 328 326 327 327 329 331 335 341 332 324 318 314 317 314 315 315 314 310 306 304 300 298 308 301 301 305 302 274 279 293 296 306 304 310 306 312
183 188 190 205 8 355 336 329 331 329 329 331 329 326 317 305 312 317 316 315 314 314 316 316 309 306 304 298 293 295 290 290 288 291 289 285 280 270 285 298 307 308 294
176 164 130 64 12 348 337 340 343 334 329 328 324 319 313 315 324 329 325 325 320 312 308 312 304 301 299 296 294 289 284 284 281 280 279 281 282 284 286 289 300 302 300
165 162 115 32 347 340 349 351 346 332 326 325 320 313 310 314 321 325 326 326 324 321 315 310 305 301 295 293 291 288 285 279 276 274 275 274 272 276 278 281 290 294 298
162 153 125 79 327 348 355 349 337 326 323 322 318 310 314 323 322 320 320 317 316 314 310 312 308 302 297 295 292 288 283 279 276 277 275 273 271 270 270 274 283 292 295
162 149 134 122 356 357 348 337 327 322 319 318 317 319 330 327 323 319 315 313 313 315 318 314 310 308 303 298 296 288 282 281 279 277 276 273 272 271 269 269 271 283 295
157 151 154 166 2 352 333 328 322 315 311 315 322 339 330 324 322 321 319 319 318 318 319 319 320 320 317 307 299 296 289 285 283 280 279 281 280 278 274 273 274 272 278
166 164 171 142 6 343 331 322 318 314 312 316 320 325 323 323 324 322 320 320 320 323 325 327 329 330 333 330 319 310 303 298 297 297 298 299 300 300 296 288 285 282 281
157 160 160 69 354 330 321 317 313 312 311 316 323 325 324 324 324 322 322 324 326 327 330 333 336 342 345 348 349 344 342 336 334 333 331 327 332 327 317 311 305 299 292
155 160 150 32 317 309 309 309 309 309 311 321 326 325 324 325 324 323 324 328 329 330 335 339 340 342 345 355 6 9 7 7 4 360 354 346 344 349 338 329 326 314 308
165 168 170 244 282 292 296 301 306 310 322 329 326 325 324 324 322 323 326 329 331 335 338 339 339 340 338 348 15 14 12 9 6 5 1 351 350 355 346 343 342 328 320
178 179 183 222 260 282 294 301 307 315 324 328 328 326 324 323 324 328 329 331 337 340 337 338 340 341 339 352 38 24 11 5 1 358 355 349 355 358 1 355 356 345 335
185 182 189 210 239 264 286 301 308 314 323 326 324 325 328 329 330 330 332 335 337 336 336 337 337 340 341 3 29 32 11 1 358 352 348 343 345 354 4 359 0 358 351
180 181 190 208 228 247 269 288 301 311 323 323 322 325 327 329 330 333 335 333 329 330 333 332 335 337 336 360 29 26 17 358 353 348 345 345 345 351 356 354 356 355 356
176 179 183 198 216 233 261 285 305 319 322 321 322 321 324 324 324 330 331 325 318 324 324 323 330 334 337 351 21 28 15 353 347 342 341 339 337 340 12 357 347 350 352
168 172 178 188 198 223 257 294 314 321 321 319 318 316 316 318 323 328 325 317 317 316 318 322 326 330 330 340 4 30 1 359 345 344 349 345 345 352 10 4 349 350 354
153 161 170 179 194 214 232 274 304 312 312 310 308 307 311 318 316 318 315 313 315 319 326 327 325 320 318 331 348 19 15 4 354 348 347 347 1 2 7 8 355 355 355
155 161 171 185 197 199 207 251 283 289 294 302 305 308 313 312 307 315 310 315 320 323 318 316 316 312 319 330 335 354 20 17 1 352 346 347 4 7 6 9 4 2 1
159 167 176 192 196 193 199 244 267 278 296 304 307 309 310 311 322 317 309 312 314 314 310 307 312 316 316 325 327 343 357 13 13 352 343 354 7 9 7 9 9 7 4
172 174 180 188 199 199 201 237 260 288 305 310 309 307 310 309 310 308 306 312 310 309 310 314 320 320 318 319 326 336 347 357 13 359 359 5 8 9 5 7 10 7 1
179 178 179 190 204 208 213 229 262 289 301 305 305 305 308 311 314 315 315 313 312 311 313 319 320 316 313 310 314 310 328 348 0 6 358 4 5 10 8 7 6 3 3
179 183 189 197 203 202 219 234 250 274 292 299 301 308 312 309 313 318 312 315 311 327 341 331 321 322 320 334 349 356 349 343 355 14 1 357 358 3 3 4 5 3 2
177 185 193 198 199 200 219 231 238 249 277 298 307 308 308 314 320 318 322 331 338 339 345 346 344 334 341 351 357 357 359 356 2 16 355 353 356 359 360 360 359 1 3